Location: Newark
(6.9530°N, 126.2160°E)
Time: 17:08:15
(UTC+00:00)

LightSail 2 - Visible Passes

Search period start: 29 January 2020 00:00
Search period end: 08 February 2020 00:00
Orbit: 704 x 719 km, 24.0° (Epoch: 28 January)

Date Brightness Start Highest point End Pass type
(mag) Time Alt. Az. Time Alt. Az. Time Alt. Az.
29 Jan 6.1 10:23:42 10° NW 10:28:13 31° NNE 10:31:17 17° ENE visible
29 Jan 7.3 12:08:40 10° WNW 12:10:16 20° WNW 12:10:16 20° WNW visible
30 Jan 5.0 11:10:11 10° WNW 11:15:19 71° NNE 11:15:58 62° ENE visible
31 Jan 5.5 10:11:47 10° NW 10:16:46 49° NNE 10:21:44 10° E visible
31 Jan 6.6 11:57:21 10° W 12:00:43 34° WSW 12:00:43 34° WSW visible
01 Feb 5.4 10:58:38 10° WNW 11:03:43 66° SSW 11:06:32 26° SE visible
02 Feb 5.2 10:00:03 10° WNW 10:05:11 86° NNE 10:10:21 10° ESE visible
02 Feb 6.9 11:46:27 10° W 11:50:38 25° SSW 11:51:23 24° SSW visible
03 Feb 6.5 10:47:23 10° W 10:52:05 36° SSW 10:56:48 10° SE visible
03 Feb 7.6 21:28:08 10° SSW 21:31:54 20° SSE 21:35:40 10° ESE visible
04 Feb 7.7 11:36:20 10° WSW 11:39:04 14° SSW 11:41:50 10° S visible
04 Feb 7.7 20:30:36 10° S 20:33:17 14° SSE 20:35:57 10° SE visible
05 Feb 7.4 10:36:39 10° WSW 10:40:26 21° SSW 10:44:15 10° SSE visible
05 Feb 6.6 21:15:33 10° SW 21:20:15 35° SSE 21:24:57 10° E visible
06 Feb 7.1 20:17:54 12° SSW 20:21:39 24° SSE 20:25:49 10° E visible
07 Feb 7.9 10:27:04 10° SW 10:28:51 12° SSW 10:30:37 10° S visible
07 Feb 7.6 19:23:43 17° SE 19:23:43 17° SE 19:26:21 10° ESE visible
07 Feb 5.5 21:03:24 10° SW 21:08:32 64° SSE 21:13:37 10° ENE visible
